This is the latest recevied weather packets stored in our database for station/object N4BBA. If no packets are shown the sender has not sent any weather packets the latest 10 day(s).
| Time | Temp. | Humidity | Pressure | Rain* | Wind** | Luminosity | Snow |
|---|---|---|---|---|---|---|---|
| 1777981332 | 13.33° C | 89% | 1016.8 hPa | 0 mm | - | 43 W/m² | - |
| 1777981029 | 13.33° C | 89% | 1016.8 hPa | 0 mm | - | 38 W/m² | - |
| 1777980726 | 12.78° C | 90% | 1016.7 hPa | 0 mm | - | 40 W/m² | - |
| 1777980422 | 12.78° C | 90% | 1016.7 hPa | 0 mm | - | 40 W/m² | - |
| 1777980120 | 12.22° C | 90% | 1016.6 hPa | 0 mm | - | 40 W/m² | - |
| 1777979819 | 11.67° C | 90% | 1016.8 hPa | 0 mm | - | 38 W/m² | - |
| 1777979515 | 11.11° C | 90% | 1016.6 hPa | 0 mm | - | 35 W/m² | - |
| 1777979212 | 11.11° C | 90% | 1016.6 hPa | 0 mm | - | 31 W/m² | - |
| 1777978909 | 10.56° C | 89% | 1016.6 hPa | 0 mm | - | 27 W/m² | - |
| 1777978606 | 10.56° C | 89% | 1016.3 hPa | 0 mm | - | 24 W/m² | - |
| 1777978301 | 10.56° C | 89% | 1016.3 hPa | 0 mm | - | 21 W/m² | - |
| 1777977999 | 10.56° C | 88% | 1016.2 hPa | 0 mm | - | 18 W/m² | - |
| 1777977696 | 10.56° C | 88% | 1016.2 hPa | 0 mm | - | 15 W/m² | - |
| 1777977392 | 10.56° C | 88% | 1016.1 hPa | 0 mm | - | 11 W/m² | - |
| 1777977090 | 10.56° C | 88% | 1016 hPa | 0 mm | - | 8 W/m² | - |
| 1777976787 | 10.56° C | 87% | 1016.2 hPa | 0 mm | - | 6 W/m² | - |
| 1777976485 | 11.11° C | 87% | 1016 hPa | 0 mm | - | 3 W/m² | - |
| 1777976184 | 11.67° C | 87% | 1015.8 hPa | 0 mm | - | 2 W/m² | - |
| 1777975880 | 11.67° C | 87% | 1015.9 hPa | 0 mm | - | 1 W/m² | - |
| 1777975576 | 11.67° C | 87% | 1015.9 hPa | 0 mm | - | 0 W/m² | - |
| 1777975273 | 11.67° C | 87% | 1015.9 hPa | 0 mm | - | 0 W/m² | - |
| 1777974969 | 11.67° C | 86% | 1015.8 hPa | 0 mm | - | 0 W/m² | - |
| 1777974666 | 11.67° C | 86% | 1015.8 hPa | 0 mm | - | 0 W/m² | - |
| 1777974362 | 11.11° C | 86% | 1015.6 hPa | 0 mm | - | 0 W/m² | - |
| 1777974058 | 11.11° C | 85% | 1015.6 hPa | 0 mm | - | 0 W/m² | - |
* Rain latest hour (hover to see other rain measurements)
** Current wind speed in m/s (hover to see current wind gust speed)